Retour au catalogue

STARLINK-36940

ActifCommunicationsSSO
NORAD 68027·PAYLOAD·🇺🇸 United States

Lancé Mar 1, 2026 depuis Vandenberg Space Force Base

Loading…

Prochains Passages (prochaines 24 heures)

TLE

FraisSource: CelesTrak SupGP

Époque: Sep 14, 2026, 23:23 UTC

1 68027C 26040N   26257.97479167 -.00050789  00000+0 -15770-2 0  2576
2 68027  97.2851 205.4610 0001764  85.7174 340.5855 15.33457167    18

Suivez STARLINK-36940 en temps réel avec AllMySat

Download on the App Store